TimeEDT,TemperatureF,Dew PointF,Humidity,Sea Level PressureIn,VisibilityMPH,Wind Direction,Wind SpeedMPH,Gust SpeedMPH,PrecipitationIn,Events,Conditions,WindDirDegrees,DateUTC
12:53 AM,75.9,73.0,91,29.94,9.0,Calm,Calm,-,N/A,,Clear,0,2013-07-28 04:53:00
1:53 AM,75.9,73.0,91,29.94,7.0,Calm,Calm,-,N/A,,Clear,0,2013-07-28 05:53:00
2:53 AM,75.0,73.0,94,29.95,7.0,West,3.5,-,N/A,,Clear,270,2013-07-28 06:53:00
3:53 AM,75.0,72.0,90,29.94,8.0,Calm,Calm,-,N/A,,Clear,0,2013-07-28 07:53:00
4:53 AM,73.9,72.0,93,29.94,8.0,Calm,Calm,-,N/A,,Clear,0,2013-07-28 08:53:00
5:53 AM,75.0,71.1,87,29.95,8.0,Calm,Calm,-,N/A,,Overcast,0,2013-07-28 09:53:00
6:53 AM,75.0,72.0,90,29.96,8.0,Calm,Calm,-,N/A,,Overcast,0,2013-07-28 10:53:00
7:53 AM,75.9,72.0,87,29.98,8.0,NW,3.5,-,N/A,,Overcast,320,2013-07-28 11:53:00
8:53 AM,77.0,73.0,88,30.00,9.0,WNW,3.5,-,N/A,,Overcast,300,2013-07-28 12:53:00
9:53 AM,78.1,73.0,84,29.99,9.0,Calm,Calm,-,N/A,,Overcast,0,2013-07-28 13:53:00
10:53 AM,79.0,73.0,82,30.01,10.0,Calm,Calm,-,N/A,,Overcast,0,2013-07-28 14:53:00
11:53 AM,81.0,73.0,77,30.01,10.0,Calm,Calm,-,N/A,,Overcast,0,2013-07-28 15:53:00
12:53 PM,84.0,73.0,69,30.00,10.0,Calm,Calm,-,N/A,,Mostly Cloudy,0,2013-07-28 16:53:00
1:53 PM,84.9,72.0,65,30.00,10.0,Calm,Calm,-,N/A,,Mostly Cloudy,0,2013-07-28 17:53:00
2:53 PM,86.0,73.0,65,30.00,10.0,WNW,5.8,-,N/A,,Mostly Cloudy,290,2013-07-28 18:53:00
3:53 PM,87.1,71.1,59,29.98,10.0,Calm,Calm,-,N/A,,Mostly Cloudy,0,2013-07-28 19:53:00
4:53 PM,88.0,72.0,59,29.96,10.0,South,5.8,-,N/A,,Mostly Cloudy,190,2013-07-28 20:53:00
5:53 PM,88.0,72.0,59,29.97,10.0,SE,8.1,-,N/A,,Mostly Cloudy,130,2013-07-28 21:53:00
6:53 PM,87.1,73.0,63,29.99,10.0,South,10.4,-,N/A,,Scattered Clouds,180,2013-07-28 22:53:00
7:53 PM,84.0,73.9,72,30.01,10.0,SSE,9.2,-,N/A,,Mostly Cloudy,160,2013-07-28 23:53:00
8:53 PM,82.0,73.0,74,30.02,10.0,SE,9.2,-,N/A,,Mostly Cloudy,140,2013-07-29 00:53:00
9:53 PM,80.1,73.9,81,30.03,9.0,South,5.8,-,N/A,,Mostly Cloudy,180,2013-07-29 01:53:00
10:53 PM,79.0,73.9,84,30.03,9.0,South,5.8,-,N/A,,Mostly Cloudy,180,2013-07-29 02:53:00
11:53 PM,79.0,75.0,88,30.04,8.0,SSW,6.9,-,N/A,,Scattered Clouds,210,2013-07-29 03:53:00